SYRACUSE 3A

Last updated on Thu Nov 21 2024 00:02:40 GMT+0000 (Coordinated Universal Time)

1 28885U 05041B 24325.74182361 .00000157 00000+0 00000+0 0 9990 2 28885 3.1740 82.9645 0003186 218.0803 60.7825 1.00246003 69999
UTC large
Height (km)
Speed (km/s)
/
Latitude / Longitude
Inclination (degrees)
Orbital Period (minutes)
Azimuth
Elevation
Range (km)
Doppler Factor

Next 0 passes for location: London (51.5072 / 0.1276)

Sorry there are no passes over London.